www.pogodaiklimat.ru

Погода и климат >> Архив погоды >> Перу >> Трухильо


ПОГОДА в Трухильо

  • Прогноз погоды в Трухильо
  • Монитор погоды в Трухильо

АРХИВ ПОГОДЫ в Трухильо

Время (UTC), дата Ветер
(напр.,м/с)
 
Видим.   Явления Облачность Т
(С)
Тd
(С)
f
(%)
Тe
(С)
Тes
(С)
Комфортность P
(гПа)
Po
(гПа)
Тmin
(С)
Tmax
(С)
R
(мм)
R24
(мм)
S
(см)
12 13.06 Ю 3 6000 м дымка 10/10 420 м
[St]
+17.5 +16.0 91 +17 +17 1015.0 1012.2 +17.4
15 13.06 ЮВ 5 10 км 10/10 500 м
[St]
+19.1 +15.4 79 +20 +20 1017.1 1014.3
18 13.06 Ю 6 8000 м мгла 10/10 600 м
[St]
+19.6 +15.9 79 +21 +21 комфорт 1015.5 1012.7
21 13.06 Ю 5 9000 м мгла 3/3 600 м
[St]
+20.0 +15.7 76 +22 +24 комфорт 1012.7 1009.9
00 14.06 ЮВ 3 9000 м дымка 3/3 600 м
[St]
+18.3 +15.4 83 +19 +19 1014.4 1011.6 +20.9
03 14.06 ЮВ 3 10 км ясно +17.9 +14.8 82 +18 +18 1016.8 1014.0
06 14.06 В 3 9000 м дымка ясно +17.1 +14.9 87 +17 +17 1016.4 1013.6
09 14.06 ЮВ 4 6000 м дымка ясно +16.9 +15.6 92 +16 +16 1014.8 1012.5
12 14.06 В 2 8000 м дымка 4/0
[Ac trans]
+16.7 +14.6 87 +17 +17 1015.1 1012.3 +16.2
15 14.06 Ю 4 8000 м мгла 3/3 600 м
[St]
+20.0 +15.7 76 +23 +28 комфорт 1016.5 1013.7
18 14.06 Ю 5 8000 м мгла 3/3 600 м
[St]
+20.0 +15.9 77 +22 +28 комфорт 1015.9 1013.1
21 14.06 Ю 5 8000 м мгла 8/3 600 м
[St Ac trans]
+20.2 +16.5 79 +23 +24 комфорт 1014.3 1011.5
00 15.06 ЮВ 4 7000 м дымка 3/0
[Ac trans]
+18.4 +16.2 87 +19 +19 1015.2 1012.4 +21.1
03 15.06 ЮВ 4 7000 м дымка 4/0
[Ac trans]
+18.0 +15.8 87 +18 +18 1017.2 1014.4
06 15.06 ЮВ 2 6000 м дымка 5/0
[Ac trans]
+17.7 +15.7 88 +18 +18 1016.6 1013.8
09 15.06 Ю 3 н/о дымка 3/0
[Ac trans]
+17.3 +16.2 93 +17 +17 1015.2 1012.2
12 15.06 ЮВ 2 5000 м дымка 8/1 600 м
[Sc Ac trans]
+16.9 +15.8 93 +17 +17 1016.2 1013.4 +16.6
18 15.06 Ю 6 6000 м мгла 3/3 600 м
[St]
+20.2 +16.3 78 +23 +28 комфорт 1015.0 1012.2
21 15.06 ЮВ 6 7000 м дымка 10/4 700 м
[St Ac trans]
+19.2 +16.5 84 +21 +21 комфорт 1012.9 1010.1
00 16.06 ЮВ 6 7000 м дымка 9/0
[Ac trans]
+18.2 +16.6 90 +18 +18 1013.4 1010.6 +21.2
03 16.06 ЮВ 5 6000 м дымка 10/3 540 м
[St Ac trans]
+17.9 +16.4 91 +17 +17 1013.4 1010.6
06 16.06 ЮВ 5 6000 м дымка 10/10 210 м
[St]
+17.8 +16.5 92 +17 +17 1013.5 1010.7
09 16.06 ЮВ 3 6000 м дымка 10/10 450 м
[St]
+17.6 +16.3 92 +18 +18 1012.6 1009.8
12 16.06 ЮВ 3 5000 м дымка 10/10 300 м
[St]
+17.6 +16.3 92 +18 +18 1013.5 1010.7 +17.0
15 16.06 ЮВ 4 7000 м дымка 10/10 420 м
[St]
+18.8 +16.6 87 +20 +20 1014.6 1011.8
18 16.06 Ю 5 10 км 10/10 360 м
[St]
+19.2 +16.1 82 +21 +21 комфорт 1012.7 1009.9
21 16.06 Ю 6 10 км 6/6 450 м
[St]
+19.4 +16.1 81 +21 +22 комфорт 1010.3 1007.5
00 17.06 ЮВ 4 8000 м дымка 10/10 450 м
[St]
+18.1 +16.3 89 +18 +18 1011.0 1008.2 +19.9
03 17.06 Ю 5 6000 м дымка 10/10 240 м
[St]
+17.7 +16.4 92 +17 +17 1012.2 1009.4
06 17.06 ЮВ 4 6000 м дымка 10/10 360 м
[St]
+17.5 +16.2 92 +17 +17 1012.0 1009.2
09 17.06 ЮВ 3 5000 м дымка 10/10 240 м
[St]
+17.2 +16.2 94 +17 +17 1011.9 1009.1
12 17.06 ЮВ 3 6000 м дымка 10/10 480 м
[St]
+17.3 +16.3 94 +17 +17 1012.9 1010.1 +17.2
15 17.06 ЮВ 4 6000 м дымка 10/10 570 м
[St]
+18.5 +16.5 88 +19 +19 1013.7 1010.9
18 17.06 Ю 5 10 км 10/10 570 м
[St]
+19.5 +16.6 83 +21 +21 комфорт 1011.6 1008.8
21 17.06 Ю 6 9000 м дымка 3/3 300 м
[St]
+19.5 +16.4 82 +21 +22 комфорт 1009.7 1006.9
00 18.06 ЮВ 4 8000 м дымка 8/8 450 м
[St]
+18.2 +16.0 87 +18 +18 1011.1 1008.3 +20.7
06 18.06 ЮВ 4 5000 м дымка 10/10 210 м
[St]
+17.5 +16.0 91 +17 +17 1013.3 1010.5
09 18.06 ЮВ 4 4000 м дымка 10/10 90 м
[St]
+16.8 +16.2 96 +16 +16 1012.2 1009.4
15 18.06 Ю 4 7000 м дымка 10/10 120 м
[St]
+17.7 +20.1 100 +17 +17 1014.0 1011.2
18 18.06 Ю 4 9000 м мгла 10/10 400 м
[Sc]
+18.2 +16.0 87 +18 +18 1012.8 1010.0
21 18.06 ЮВ 4 10 км 10/10 400 м
[Sc]
+18.3 +15.6 84 +19 +19 1011.4 1008.6
00 19.06 ЮВ 3 8000 м дымка 10/10 400 м
[Sc]
+17.7 +15.5 87 +18 +18 1011.5 1008.7 +18.6
03 19.06 ЮВ 4 7000 м дымка 10/10 270 м
[St]
+17.6 +15.4 87 +17 +17 1012.5 1009.7
06 19.06 ЮВ 3 6000 м дымка 10/10 270 м
[St]
+17.5 +16.2 92 +18 +18 1013.2 1010.4
09 19.06 Ю 3 3000 м дымка 10/10 60 м
[St]
+16.9 +16.3 96 +17 +17 1012.5 1009.7
12 19.06 ЮВ 3 5000 м дымка 10/10 90 м
[St]
+16.6 +16.1 97 +16 +16 1012.8 1010.0 +16.5 0.0
15 19.06 Ю 4 8000 м дымка 10/10 400 м
[Sc]
+17.8 +16.2 90 +18 +18 1013.9 1011.1
18 19.06 Ю 4 10 км 10/10 450 м
[Sc]
+18.7 +16.3 86 +20 +20 1013.6 1010.8
21 19.06 Ю 4 9000 м дымка 10/10 420 м
[Sc]
+18.7 +16.3 86 +20 +20 1012.1 1009.3
00 20.06 ЮВ 4 7000 м дымка 10/10 360 м
[Sc]
+18.2 +15.9 86 +18 +18 1012.9 1010.1 +19.7
03 20.06 ЮВ 3 8000 м дымка 10/10 420 м
[Sc]
+18.1 +15.4 84 +19 +19 1013.9 1011.1
06 20.06 ЮВ 2 4500 м дымка 3/3 210 м
[St]
+16.9 +15.1 89 +17 +17 1013.7 1010.9

 

Местоположение метеостанции Трухильо (Перу): широта -8.08 долгота -79.10 высота над уровнем моря 30 м.

В архиве по умолчанию представлена погода в Трухильо за последнюю неделю. Архивные данные за месяц целиком и за предыдущие месяцы, начиная с января 2011 года, Вы можете получить, выбрав интересующий диапазон дат из раскрывающегося списка и нажав кнопку "Ввод!".


*Определитесь, кто Вы:
робот инопланетянин человек

Внимание! Время в таблицах - всемирное. Для получения местного времени необходимо прибавить поправку, которая равна -5 ч.

Смотрите также архив погоды в соседних городах и на ближайших метеорологических станциях:

Погода в Кахамарке (Перу) (127 км)
Погода в Сане (Перу) (133 км)
Погода в Чимботе (Перу) (134 км)
Погода в Чиклайо (Перу) (164 км)
Погода в Анте (Перу) (217 км)
Погода в Мотупе (Перу) (233 км)
Погода в Чачапоясе (Перу) (251 км)
Погода в Хуанхуи (Перу) (282 км)
Погода в Пуке (Перу) (341 км)
Погода в Тарапото (Перу) (350 км)

Пояснения к столбцам:

Ветер - указаны скорость ветра в м/с - средняя за 10 мин, порывы в срок и между сроками (в фигурных скобках) и направление, откуда дует ветер: С - северный, СВ - северо-восточный, В - восточный, ЮВ - юго-восточный, Ю - южный, ЮЗ - юго-западный, З - западный, СЗ - северо-западный.
Видимость - горизонтальная дальность видимости в метрах или километрах. При видимости от 1 до 10 км при отсутствии осадков обычно наблюдается дымка, при ухудшении видимости до 1 км и менее - туман. В сухую погоду видимость может ухудшаться дымом, пылью или мглою.
Явления - указаны атмосферные явления, наблюдавшиеся в срок или в последний час перед сроком; фигурными скобками обозначены явления, наблюдавшиеся между сроками (за 1-3 часа до срока); квадратными скобками обозначены град или гололедные отложения с указанием их диаметра в мм.
Облачность - указаны через наклонную черту общая и нижняя облачность в баллах и высота нижней границы облаков в метрах; квадратными скобками обозначены формы облаков: Ci - перистые, Cs - перисто-слоистые, Cc - перисто-кучевые, Ac - высококучевые, As - высокослоистые, Sc - слоисто-кучевые, Ns - слоисто-дождевые, Cu - кучевые, Cb - кучево-дождевые. Подробнее классификацию облаков см. в Атласе облаков (PDF).
T - Температура воздуха - температура, измеренная на высоте 2 м над землей.
Td - Температура точки росы - температура, при понижении до которой содержащийся в воздухе водяной пар достигнет насыщения.
f - Относительная влажность воздуха - влажноcть воздуха, измеренная на высоте 2 м над землей.
Te - Эффективная температура - температура, которую ощущает одетый по сезону человек в тени. Характеристика душности погоды. При расчете учитывается влияние влажности воздуха и скорости ветра на теплоощущения человека.
Tes - Эффективная температура на солнце - температура, которую ощущает человек, с поправкой на солнечный нагрев. Характеристика знойности погоды. Зависит от высоты солнца над горизонтом, облачности и скорости ветра. Ночью, в пасмурную погоду, а также при ветре 12 м/с и более поправка равна нулю.
P - Атмосферное давление - приведенное к уровню моря атмосферное давление.
Po - Атмосферное давление - измеренное на уровне метеостанции атмосферное давление.
Tmin - Минимальная температура - минимум температуры воздуха на высоте 2 м над землей.
Tmax - Максимальная температура - максимум температуры воздуха на высоте 2 м над землей.
R - Количество осадков - Количество выпавших осадков за период времени, мм. При наведении курсора мыши на число - период времени, за который выпало указанное количество осадков.
R24 - Количество осадков - Количество выпавших осадков за 24 часа, мм.
S - Снежный покров - Высота снежного покрова, см. При наведении курсора мыши на число - состояние снежного покрова и степень покрытия местности в баллах.